Home   Weather   Hayfork   Past weeks
Flag for USA

Past Weather in Hayfork, California, USA — Yesterday and Last 2 Weeks

Now
73 °F

Sunny.


Feels Like: 74 °F
Forecast: 71 / 38 °F
Wind: 6 mph from Southwest

Location: Weaverville

Current Time: Oct 13, 2019 at 4:09:43 pm

Latest Report: Oct 13, 2019 at 3:35 pm


Visibility: 10 mi

Pressure: 29.86 "Hg (27.52 "Hg at 706m altitude)

Humidity: 13%

Dew Point: 19 °F

Location of HayforkLocation

Past Weather in Hayfork — Graph

°F

Hayfork Temperature Yesterday

Maximum temperature yesterday: 75 °F (at 3:15 pm)
Minimum temperature yesterday: 28 °F (at 7:15 am)
Average temperature yesterday: 49 °F

High & Low Weather Summary for the Past Weeks

 TemperatureHumidityPressure
High84 °F (Oct 7, 3:55 pm)100% (Sep 29, 7:35 am)30.28 "Hg (Sep 29, 7:35 am)
Low27 °F (Oct 10, 7:35 am)5% (Oct 10, 12:35 pm)29.75 "Hg (Sep 28, 2:15 pm)
Average49 °F57%30.04 "Hg
* Reported Sep 28 2:15 pm — Oct 13 2:55 pm, Hayfork. Weather by CustomWeather, © 2019

Note: Actual official high and low records may vary slightly from our data, if they occured in-between our weather recording intervals... More about our weather records

Advertising

Hayfork Weather History for the Previous 24 Hours

Scroll right to see more
 ConditionsComfort  
Time TempWeatherWind HumidityBarometerVisibility
2:55 pm
Sun, Oct 13
72 °FSunny.5 mph16%29.86 "Hg10 mi
2:35 pm72 °FSunny.No wind17%29.87 "Hg10 mi
2:15 pm72 °FSunny.3 mph17%29.87 "Hg10 mi
1:55 pm70 °FSunny.3 mph18%29.88 "Hg10 mi
1:35 pm68 °FSunny.5 mph20%29.88 "Hg10 mi
12:55 pm66 °FSunny.3 mph24%29.90 "Hg10 mi
12:35 pm64 °FSunny.6 mph28%29.91 "Hg10 mi
11:55 am61 °FSunny.5 mph31%29.93 "Hg10 mi
11:35 am59 °FSunny.No wind34%29.93 "Hg10 mi
10:55 am54 °FSunny.3 mph41%29.94 "Hg10 mi
10:35 am52 °FSunny.No wind41%29.95 "Hg10 mi
10:15 am50 °FSunny.3 mph40%29.95 "Hg10 mi
9:55 am46 °FSunny.3 mph50%29.95 "Hg10 mi
9:35 am45 °FSunny.No wind53%29.96 "Hg10 mi
9:15 am41 °FSunny.No wind61%29.96 "Hg10 mi
8:55 am41 °FSunny.No wind61%29.96 "Hg10 mi
8:35 am39 °FSunny.No wind65%29.96 "Hg10 mi
8:15 am36 °FSunny.No wind70%29.95 "Hg10 mi
7:55 am36 °FSunny.No wind70%29.95 "Hg10 mi
7:35 am34 °FSunny.No wind75%29.95 "Hg10 mi
7:15 am34 °FClear.No wind75%29.94 "Hg10 mi
6:55 am36 °FClear.No wind70%29.94 "Hg10 mi
6:35 am36 °FClear.No wind75%29.93 "Hg10 mi
6:15 am36 °FClear.No wind75%29.93 "Hg10 mi
5:55 am36 °FClear.No wind75%29.93 "Hg10 mi
5:35 am36 °FClear.No wind75%29.93 "Hg10 mi
5:15 am37 °FClear.No wind70%29.93 "Hg10 mi
4:55 am37 °FClear.No wind70%29.93 "Hg10 mi
4:35 am37 °FClear.No wind70%29.93 "Hg10 mi
4:15 am37 °FClear.No wind65%29.93 "Hg10 mi
3:55 am37 °FClear.No wind65%29.93 "Hg10 mi
3:35 am37 °FClear.No wind65%29.93 "Hg10 mi
3:15 am37 °FClear.No wind65%29.94 "Hg10 mi
2:55 am37 °FClear.No wind65%29.94 "Hg10 mi
2:35 am37 °FClear.No wind65%29.94 "Hg10 mi
2:15 am39 °FClear.3 mph61%29.94 "Hg10 mi
1:55 am39 °FClear.3 mph61%29.94 "Hg10 mi
1:35 am39 °FClear.3 mph61%29.93 "Hg10 mi
1:15 am39 °FClear.No wind61%29.93 "Hg10 mi
12:55 am41 °FClear.3 mph57%29.93 "Hg10 mi
12:35 am41 °FClear.No wind57%29.93 "Hg10 mi
12:15 am41 °FClear.No wind57%29.93 "Hg10 mi
11:55 pm
Sat, Oct 12
43 °FClear.No wind53%29.92 "Hg10 mi
11:35 pm43 °FClear.No wind57%29.92 "Hg10 mi
11:15 pm45 °FClear.No wind53%29.92 "Hg10 mi
10:55 pm45 °FClear.No wind49%29.91 "Hg10 mi
10:35 pm46 °FClear.No wind46%29.91 "Hg10 mi
9:55 pm48 °FClear.3 mph46%29.91 "Hg10 mi
9:35 pm48 °FClear.3 mph46%29.91 "Hg10 mi
9:15 pm50 °FClear.No wind43%29.91 "Hg10 mi
8:55 pm52 °FClear.3 mph41%29.91 "Hg10 mi
8:35 pm54 °FClear.No wind38%29.91 "Hg10 mi
7:55 pm55 °FClear.No wind36%29.90 "Hg10 mi
7:35 pm57 °FClear.No wind31%29.90 "Hg10 mi
7:15 pm59 °FClear.No wind31%29.89 "Hg10 mi
6:55 pm61 °FClear.No wind29%29.89 "Hg10 mi
6:35 pm64 °FSunny.No wind24%29.88 "Hg10 mi
6:15 pm68 °FSunny.No wind20%29.88 "Hg10 mi
5:55 pm73 °FSunny.3 mph14%29.88 "Hg10 mi
5:15 pm75 °FSunny.5 mph12%29.88 "Hg10 mi
4:55 pm75 °FSunny.6 mph12%29.89 "Hg10 mi
4:35 pm75 °FSunny.6 mph11%29.90 "Hg10 mi
4:15 pm75 °FSunny.5 mph10%29.90 "Hg10 mi
Weather by CustomWeather, © 2019

See weather overview